ANA685 RJTT-RJOA

Flight info

Callsign ANA685
Flight time 0h 58m
Altitude 32000
Route TIARA GUSRO Y20 KAMMY Y202 AMURO
Aircraft B772/H-SDE2E3FGHIJ5LORVWXY/LB1D1

Departure

Time 2026-05-01 13:07
Airport Tokyo Haneda International Airport (RJTT)

Arrival

Time 2026-05-01 14:05
Airport Hiroshima Airport (RJOA)
Time Latitude Longitude Altitude Speed Heading
2026-05-01 12:32 35.55872 139.78415 36 ft 0 kts 240°
2026-05-01 12:54 35.55874 139.78418 36 ft 2 kts 240°
2026-05-01 12:54 35.55882 139.78435 36 ft 2 kts 240°
2026-05-01 12:55 35.55896 139.78467 36 ft 2 kts 240°
2026-05-01 12:55 35.55904 139.78482 36 ft 2 kts 241°
2026-05-01 12:55 35.55908 139.78500 36 ft 2 kts 277°
2026-05-01 12:56 35.55903 139.78517 36 ft 2 kts 306°
2026-05-01 12:56 35.55895 139.78528 36 ft 0 kts 329°
2026-05-01 12:56 35.55890 139.78531 36 ft 0 kts 330°
2026-05-01 12:59 35.55951 139.78487 36 ft 12 kts 329°
2026-05-01 12:59 35.56037 139.78427 36 ft 14 kts 331°
2026-05-01 12:59 35.56225 139.78294 36 ft 14 kts 330°
2026-05-01 13:00 35.56362 139.78429 36 ft 12 kts 60°
2026-05-01 13:00 35.56408 139.78525 36 ft 10 kts 59°
2026-05-01 13:01 35.56469 139.78651 36 ft 9 kts 59°
2026-05-01 13:01 35.56480 139.78720 36 ft 9 kts 124°
2026-05-01 13:01 35.56452 139.78751 36 ft 0 kts 149°
2026-05-01 13:07 35.54273 139.97864 6954 ft 281 kts 350°
2026-05-01 13:07 35.56229 139.97760 7612 ft 285 kts 351°
2026-05-01 13:07 35.58208 139.97656 8309 ft 286 kts 350°
2026-05-01 13:08 35.60213 139.97549 8983 ft 289 kts 351°
2026-05-01 13:08 35.62206 139.97446 9650 ft 289 kts 351°
2026-05-01 13:08 35.64215 139.97302 10244 ft 291 kts 346°
2026-05-01 13:08 35.66255 139.96796 10506 ft 304 kts 336°
2026-05-01 13:09 35.68254 139.95804 10722 ft 319 kts 327°
2026-05-01 13:09 35.70158 139.94281 10966 ft 332 kts 316°
2026-05-01 13:09 35.71833 139.92206 11285 ft 343 kts 302°
2026-05-01 13:09 35.72931 139.89642 11889 ft 347 kts 288°
2026-05-01 13:10 35.73542 139.86771 12789 ft 345 kts 277°
2026-05-01 13:10 35.73668 139.83861 13619 ft 346 kts 267°
2026-05-01 13:10 35.73429 139.80904 14410 ft 350 kts 263°
2026-05-01 13:10 35.73122 139.77911 15185 ft 355 kts 263°
2026-05-01 13:11 35.72805 139.74873 15899 ft 361 kts 263°
2026-05-01 13:11 35.72483 139.71800 16557 ft 366 kts 263°
2026-05-01 13:11 35.72157 139.68701 17302 ft 370 kts 263°
2026-05-01 13:11 35.71827 139.65564 18031 ft 373 kts 262°
2026-05-01 13:12 35.71492 139.62387 18693 ft 377 kts 263°
2026-05-01 13:12 35.71148 139.59148 19239 ft 383 kts 263°
2026-05-01 13:12 35.70802 139.55882 19763 ft 390 kts 263°
2026-05-01 13:12 35.70449 139.52565 20312 ft 396 kts 264°
2026-05-01 13:13 35.70086 139.49167 20993 ft 398 kts 264°
2026-05-01 13:13 35.69730 139.45836 21562 ft 402 kts 265°
2026-05-01 13:13 35.69363 139.42410 22003 ft 409 kts 265°
2026-05-01 13:13 35.68983 139.38869 22458 ft 416 kts 265°
2026-05-01 13:14 35.68602 139.35335 22992 ft 420 kts 265°
2026-05-01 13:14 35.68217 139.31773 23579 ft 423 kts 265°
2026-05-01 13:14 35.67832 139.28227 24082 ft 426 kts 265°
2026-05-01 13:14 35.67435 139.24567 24502 ft 431 kts 264°
2026-05-01 13:15 35.67036 139.20920 25031 ft 433 kts 264°
2026-05-01 13:15 35.66636 139.17261 25637 ft 433 kts 264°
2026-05-01 13:15 35.66235 139.13619 26200 ft 433 kts 264°
2026-05-01 13:15 35.65957 139.09961 26624 ft 436 kts 268°
2026-05-01 13:16 35.65815 139.06227 26962 ft 442 kts 268°
2026-05-01 13:16 35.65645 139.02440 27355 ft 446 kts 268°
2026-05-01 13:16 35.65467 138.98622 27836 ft 448 kts 268°
2026-05-01 13:17 35.64930 138.87238 29396 ft 450 kts 267°
2026-05-01 13:17 35.64745 138.83354 29828 ft 451 kts 267°
2026-05-01 13:18 35.64376 138.75714 30725 ft 452 kts 267°
2026-05-01 13:18 35.64188 138.71855 31213 ft 450 kts 267°
2026-05-01 13:18 35.64000 138.68034 31463 ft 452 kts 266°
2026-05-01 13:18 35.63811 138.64197 31507 ft 453 kts 266°
2026-05-01 13:19 35.63427 138.56505 31530 ft 448 kts 266°
2026-05-01 13:20 35.62844 138.45027 31533 ft 451 kts 267°
2026-05-01 13:20 35.62451 138.37387 31551 ft 447 kts 267°
2026-05-01 13:21 35.61852 138.25932 31556 ft 448 kts 267°
2026-05-01 13:21 35.61449 138.18335 31548 ft 448 kts 266°
2026-05-01 13:22 35.61042 138.10757 31549 ft 447 kts 267°
2026-05-01 13:22 35.60627 138.03126 31586 ft 447 kts 267°
2026-05-01 13:23 35.60211 137.95564 31559 ft 445 kts 268°
2026-05-01 13:23 35.59790 137.87990 31578 ft 445 kts 268°
2026-05-01 13:24 35.59364 137.80411 31576 ft 445 kts 268°
2026-05-01 13:25 35.58560 137.69032 31584 ft 445 kts 266°
2026-05-01 13:25 35.57992 137.61484 31590 ft 445 kts 267°
2026-05-01 13:26 35.57406 137.53978 31604 ft 445 kts 265°
2026-05-01 13:26 35.55968 137.46553 31621 ft 446 kts 258°
2026-05-01 13:27 35.54361 137.39233 31612 ft 447 kts 258°
2026-05-01 13:27 35.51935 137.28209 31626 ft 448 kts 258°
2026-05-01 13:28 35.49503 137.17203 31640 ft 444 kts 258°
2026-05-01 13:29 35.46251 137.02559 31650 ft 445 kts 259°
2026-05-01 13:31 35.41343 136.80631 31673 ft 443 kts 259°
2026-05-01 13:32 35.37271 136.62592 31677 ft 441 kts 260°
2026-05-01 13:33 35.33156 136.44475 31670 ft 439 kts 260°
2026-05-01 13:34 35.29854 136.30063 31691 ft 439 kts 260°
2026-05-01 13:35 35.27375 136.19286 31700 ft 439 kts 260°
2026-05-01 13:36 35.24881 136.08495 31741 ft 438 kts 260°
2026-05-01 13:36 35.22401 135.97813 31712 ft 436 kts 261°
2026-05-01 13:37 35.20747 135.90710 31707 ft 436 kts 261°
2026-05-01 13:37 35.19076 135.83557 31709 ft 436 kts 260°
2026-05-01 13:38 35.16959 135.72926 31709 ft 431 kts 265°
2026-05-01 13:39 35.15794 135.65729 31704 ft 431 kts 265°
2026-05-01 13:39 35.14615 135.58618 31717 ft 428 kts 265°
2026-05-01 13:40 35.13415 135.51472 31717 ft 427 kts 265°
2026-05-01 13:40 35.12212 135.44357 31737 ft 426 kts 265°
2026-05-01 13:41 35.11010 135.37303 31741 ft 425 kts 265°
2026-05-01 13:41 35.09794 135.30183 31762 ft 427 kts 264°
2026-05-01 13:42 35.08569 135.23062 31773 ft 425 kts 265°
2026-05-01 13:42 35.07355 135.16026 31760 ft 426 kts 265°
2026-05-01 13:43 35.06128 135.08943 31778 ft 423 kts 265°
2026-05-01 13:43 35.04908 135.01926 31781 ft 423 kts 266°
2026-05-01 13:44 35.03684 134.94900 31780 ft 423 kts 265°
2026-05-01 13:44 35.02464 134.87942 31783 ft 419 kts 265°
2026-05-01 13:45 35.01236 134.80948 31785 ft 421 kts 265°
2026-05-01 13:45 35.00013 134.74019 31781 ft 416 kts 265°
2026-05-01 13:45 34.99406 134.70604 31388 ft 410 kts 266°
2026-05-01 13:46 34.98793 134.67226 30701 ft 411 kts 264°
2026-05-01 13:46 34.98062 134.63831 30077 ft 411 kts 263°
2026-05-01 13:46 34.97329 134.60509 29618 ft 405 kts 263°
2026-05-01 13:46 34.96611 134.57243 29144 ft 400 kts 263°
2026-05-01 13:47 34.95900 134.54001 28624 ft 396 kts 263°
2026-05-01 13:47 34.95186 134.50735 28108 ft 392 kts 263°
2026-05-01 13:47 34.94495 134.47575 27603 ft 389 kts 263°
2026-05-01 13:47 34.93808 134.44431 27095 ft 385 kts 263°
2026-05-01 13:48 34.93123 134.41295 26607 ft 382 kts 263°
2026-05-01 13:48 34.92446 134.38196 26116 ft 381 kts 262°
2026-05-01 13:48 34.91762 134.35054 25606 ft 390 kts 262°
2026-05-01 13:48 34.91059 134.31839 25120 ft 391 kts 261°
2026-05-01 13:49 34.90360 134.28656 24616 ft 390 kts 261°
2026-05-01 13:49 34.89664 134.25490 24107 ft 388 kts 260°
2026-05-01 13:49 34.88969 134.22333 23583 ft 385 kts 261°
2026-05-01 13:49 34.88281 134.19209 23080 ft 382 kts 261°
2026-05-01 13:50 34.87589 134.16071 22552 ft 379 kts 260°
2026-05-01 13:50 34.86914 134.13014 22027 ft 376 kts 261°
2026-05-01 13:50 34.86233 134.09932 21509 ft 374 kts 261°
2026-05-01 13:50 34.85565 134.06911 21000 ft 371 kts 260°
2026-05-01 13:51 34.84895 134.03888 20482 ft 368 kts 260°
2026-05-01 13:51 34.84238 134.00928 19983 ft 365 kts 260°
2026-05-01 13:51 34.83579 133.97958 19468 ft 363 kts 261°
2026-05-01 13:51 34.82917 133.94983 18947 ft 360 kts 261°
2026-05-01 13:52 34.82269 133.92072 18445 ft 358 kts 260°
2026-05-01 13:52 34.81620 133.89160 17947 ft 355 kts 261°
2026-05-01 13:52 34.80980 133.86293 17456 ft 353 kts 261°
2026-05-01 13:52 34.80342 133.83437 16946 ft 351 kts 261°
2026-05-01 13:53 34.79701 133.80571 16424 ft 350 kts 262°
2026-05-01 13:53 34.78432 133.74907 15393 ft 347 kts 262°
2026-05-01 13:53 34.77800 133.72093 14880 ft 345 kts 262°
2026-05-01 13:54 34.77171 133.69296 14371 ft 343 kts 262°
2026-05-01 13:54 34.76548 133.66528 13908 ft 340 kts 263°
2026-05-01 13:54 34.75925 133.63765 13425 ft 338 kts 263°
2026-05-01 13:54 34.75303 133.61005 12928 ft 337 kts 263°
2026-05-01 13:55 34.74683 133.58260 12427 ft 336 kts 263°
2026-05-01 13:55 34.74072 133.55554 11919 ft 335 kts 263°
2026-05-01 13:55 34.73460 133.52849 11413 ft 333 kts 263°
2026-05-01 13:55 34.72841 133.50124 10902 ft 332 kts 264°
2026-05-01 13:56 34.72234 133.47453 10631 ft 323 kts 264°
2026-05-01 13:56 34.71649 133.44897 10562 ft 309 kts 264°
2026-05-01 13:56 34.71086 133.42436 10461 ft 296 kts 265°
2026-05-01 13:56 34.70544 133.40047 10339 ft 286 kts 265°
2026-05-01 13:57 34.70195 133.38513 10258 ft 279 kts 265°
2026-05-01 13:57 34.69484 133.35580 10081 ft 274 kts 258°
2026-05-01 13:57 34.68359 133.33655 9868 ft 292 kts 233°
2026-05-01 13:57 34.66725 133.32104 9447 ft 304 kts 224°
2026-05-01 13:58 34.64935 133.30676 9001 ft 310 kts 221°
2026-05-01 13:58 34.63115 133.29256 8574 ft 313 kts 221°
2026-05-01 13:58 34.61287 133.27823 8164 ft 315 kts 221°
2026-05-01 13:58 34.59449 133.26379 7739 ft 316 kts 222°
2026-05-01 13:59 34.57599 133.24925 7359 ft 307 kts 222°
2026-05-01 13:59 34.55859 133.23563 7101 ft 298 kts 222°
2026-05-01 13:59 34.54131 133.22197 6634 ft 298 kts 223°
2026-05-01 13:59 34.52386 133.20821 6185 ft 298 kts 222°
2026-05-01 14:00 34.50658 133.19463 5843 ft 291 kts 222°
2026-05-01 14:00 34.48965 133.18135 5518 ft 288 kts 221°
2026-05-01 14:00 34.47317 133.16838 5037 ft 282 kts 220°
2026-05-01 14:00 34.45682 133.15552 4668 ft 273 kts 222°
2026-05-01 14:01 34.44413 133.13998 4306 ft 249 kts 248°
2026-05-01 14:01 34.43863 133.12112 4000 ft 227 kts 266°
2026-05-01 14:01 34.43681 133.10344 3737 ft 199 kts 270°
2026-05-01 14:01 34.43606 133.08812 3472 ft 168 kts 273°
2026-05-01 14:02 34.43592 133.07494 3252 ft 146 kts 274°
2026-05-01 14:02 34.43593 133.06303 3074 ft 135 kts 274°
2026-05-01 14:02 34.43595 133.05168 2926 ft 134 kts 274°
2026-05-01 14:02 34.43597 133.04015 2772 ft 134 kts 272°
2026-05-01 14:03 34.43597 133.02899 2533 ft 129 kts 272°
2026-05-01 14:03 34.43596 133.01819 2404 ft 128 kts 274°
2026-05-01 14:03 34.43604 133.00737 2233 ft 128 kts 270°
2026-05-01 14:03 34.43600 132.99648 2057 ft 129 kts 271°
2026-05-01 14:04 34.43600 132.98547 1885 ft 132 kts 272°
2026-05-01 14:04 34.43602 132.97717 1737 ft 133 kts 272°
2026-05-01 14:04 34.43613 132.96596 1561 ft 133 kts 270°
2026-05-01 14:04 34.43599 132.95609 1413 ft 134 kts 270°
2026-05-01 14:05 34.43597 132.94475 1282 ft 135 kts 270°
2026-05-01 14:05 34.43601 132.93315 1107 ft 136 kts 270°
2026-05-01 14:05 34.43602 132.92300 1102 ft 97 kts 270°
2026-05-01 14:05 34.43601 132.91707 1100 ft 33 kts 270°
2026-05-01 14:06 34.43632 132.91545 1098 ft 16 kts 330°
2026-05-01 14:06 34.43721 132.91533 1098 ft 9 kts 359°
2026-05-01 14:06 34.43765 132.91574 1098 ft 9 kts 82°
2026-05-01 14:06 34.43766 132.91653 1099 ft 9 kts 91°
2026-05-01 14:07 34.43766 132.91734 1100 ft 10 kts 90°
2026-05-01 14:07 34.43766 132.91759 1100 ft 10 kts 90°
2026-05-01 14:07 34.43765 132.91782 1100 ft 10 kts 90°
2026-05-01 14:08 34.43765 132.91904 1101 ft 10 kts 90°
2026-05-01 14:08 34.43765 132.91917 1101 ft 10 kts 90°
2026-05-01 14:08 34.43783 132.91934 1101 ft 4 kts 356°
2026-05-01 14:08 34.43826 132.91933 1101 ft 7 kts
2026-05-01 14:09 34.43882 132.91933 1101 ft 7 kts
2026-05-01 14:09 34.43896 132.91933 1101 ft 0 kts